408  
ASUS43 KFGF 130031  
RWRFGF  
PRAIRIE TO PINES WEATHER ROUNDUP  
NATIONAL WEATHER SERVICE EASTERN NORTH DAKOTA/GRAND FORKS ND  
700 PM CDT WED AUG 12 2020  
 
**SATELLITE DATA USED TO AUGMENT SKY COVER AT AUTOMATED STATIONS**  
***** WEATHER ACROSS EASTERN NORTH DAKOTA *****  
 
CITY SKY/WX TMP DP RH WIND PRES REMARKS
 
GRAND FORKS FAIR 80 64 58 SE18G28 29.89S  
6HR MIN TEMP: 77; 6HR MAX TEMP: 84;  
 
GRAND FRKS AFB FAIR 80 67 64 S20 29.89S  
GRAND FRKS NWS N/A 77 65 65 SE14 29.87R  
DEVILS LAKE FAIR 79 65 62 SE17 29.87S  
6HR MIN TEMP: 79; 6HR MAX TEMP: 84;  
 
FARGO CLOUDY 74 65 73 SE12G21 29.91S  
WAHPETON ARPT NOT AVBL  

 
 
***** WEATHER ACROSS CENTRAL AND WESTERN NORTH DAKOTA *****  
 
CITY SKY/WX TMP DP RH WIND PRES REMARKS
 
BISMARCK FAIR 90 64 42 SE21 29.78S HX 91  
6HR MIN TEMP: 86; 6HR MAX TEMP: 95;  
 
MINOT FAIR 86 59 39 SE17G29 29.75F  
6HR MIN TEMP: 86; 6HR MAX TEMP: 91;  
 
JAMESTOWN FAIR 78 66 66 SE15 29.86S  
6HR MIN TEMP: 78; 6HR MAX TEMP: 84;  
 
MINOT AFB FAIR 83 63 49 S15G23 29.74R  
GARRISON N/A 86 61 42 SE15G25 29.74F  
WILLISTON NOT AVBL  
DICKINSON FAIR 88 61 40 SE22G31 29.74F  
6HR MIN TEMP: 88; 6HR MAX TEMP: 93;  
 
HETTINGER FAIR 86 62 44 E17G28 29.76F  
6HR MIN TEMP: 83; 6HR MAX TEMP: 89;  
 

 
 
***** OTHER AIRPORT OBSERVATIONS IN OUR AREA *****  
 
CITY SKY/WX TMP DP RH WIND PRES REMARKS
 
WALHALLA FAIR 81 66 61 SE14 29.87S  
GRAFTON AIRPOR FAIR 81 64 57 SE13G20 29.91S  
VALLEY CITY AR FAIR 73 70 88 SE14G20 29.91S  
CANDO FAIR 79 66 65 SE18 29.86S  
CAVALIER APRT FAIR 81 64 57 SE10G20 29.87S  
GWINNER CLOUDY 73 73 100 E17 29.88S  
SHEYENNE NWR N/A 72 67 84 SE15 29.95S  
ROLLA FAIR 77 64 65 SE13G20 29.85F  
***** THE ABOVE OBSERVATIONS ARE NON NWS ARE NOT QUALITY  
CONTROLLED AND MAY MIS-REPORT RAIN FOR SNOW...  

 
 
***** WEATHER ACROSS NORTHERN MINNESOTA *****  
 
CITY SKY/WX TMP DP RH WIND PRES REMARKS
 
FLAG ISLAND N/A 75 66 73 S8 29.95R  
WARROAD FAIR 79 70 73 S5 29.96R  
ROSEAU FAIR 81 N/A N/A S8 29.95R  
HALLOCK FAIR 82 63 51 S14 29.89S  
THF RVR FALLS FAIR 78 64 61 SE14 29.96S  
6HR MIN TEMP: 78; 6HR MAX TEMP: 81;  
 
BAUDETTE FAIR 79 62 56 S8 29.98R  
6HR MIN TEMP: 79; 6HR MAX TEMP: 83;  
 
WASKISH FAIR 73 63 68 SE8 30.00R  
CROOKSTON FAIR 77 64 65 SE15 29.93S  
STEPHEN NDAWN N/A 81 64 57 MISG N/A  
GREENBUSH NDAW N/A 79 64 61 MISG N/A  

 
***** WEATHER ACROSS CENTRAL AND WEST MINNESOTA *****  
 
CITY SKY/WX TMP DP RH WIND PRES REMARKS
 
FOSSTON FAIR 72 61 68 SE9G16 29.98S  
BEMIDJI FAIR 71 62 72 SE12 30.00S  
6HR MIN TEMP: 72; 6HR MAX TEMP: 76;  
 
PARK RAPIDS FAIR 71 59 65 SE14 29.99F  
6HR MIN TEMP: 67; 6HR MAX TEMP: 73; 6HR PCP: TRACE;  
 
ELBOW LAKE CLOUDY 68 64 86 SE16G22 29.95R  
6HR MIN TEMP: 67; 6HR MAX TEMP: 71;  
 
WADENA CLOUDY 66 61 82 SE10 29.98S  
DETROIT LAKES N/A 70 61 73 SE16 29.98R  
MOORHEAD PTSUNNY 75 61 60 SE10 29.93S  
FERGUS FALLS CLOUDY 70 63 78 SE10 29.94S  
MORRIS MN FAIR 68 64 88 E15G23 29.93S  
STAPLES CLOUDY 64 61 88 SE6 29.99S  

 
***** WEATHER ELSEWHERE ACROSS MINNESOTA *****  
 
CITY SKY/WX TMP DP RH WIND PRES REMARKS
 
DULUTH LGT RAIN 63 59 87 S8 30.09R  
6HR MIN TEMP: 63; 6HR MAX TEMP: 77; 6HR PCP: 0.01;  
 
INTRNTL FALLS FAIR 77 57 50 S6 30.00S  
6HR MIN TEMP: 77; 6HR MAX TEMP: 81;  
 
ELY FAIR 73 55 53 S8 30.06R  
CLOQUET LGT RAIN 63 57 82 CALM 30.09R  
WHEATON FAIR 72 64 78 E15 29.92S  
BRAINERD CLOUDY 69 62 78 SE7 30.01F  
6HR MIN TEMP: 66; 6HR MAX TEMP: 71; 6HR PCP: 0.28;  
 
HIBBING FAIR 69 61 75 S7 30.06R  
6HR MIN TEMP: 70; 6HR MAX TEMP: 76;  
 
ALEXANDRIA CLOUDY 66 62 87 E14 29.98F  
6HR MIN TEMP: 65; 6HR MAX TEMP: 68; 6HR PCP: 0.06;  
 
SAINT CLOUD CLOUDY 63 61 93 E9 30.00S  
6HR MIN TEMP: 63; 6HR MAX TEMP: 71; 6HR PCP: 1.08;  
 
MINNEAPOLIS PTSUNNY 67 62 84 E13 30.01F  
6HR MIN TEMP: 66; 6HR MAX TEMP: 74; 6HR PCP: 0.11;  
 

 
 
***** WEATHER ACROSS SOUTH DAKOTA *****  
 
CITY SKY/WX TMP DP RH WIND PRES REMARKS
 
SIOUX FALLS FAIR 84 72 67 S20G25 29.88S  
6HR MIN TEMP: 84; 6HR MAX TEMP: 89;  
 
BROOKINGS FAIR 84 72 67 S9 29.88S  
WATERTOWN FAIR 83 72 69 S9 29.87F  
6HR MIN TEMP: 79; 6HR MAX TEMP: 86;  
 
HURON FAIR 86 72 62 S13 29.81S HX 92  
6HR MIN TEMP: 84; 6HR MAX TEMP: 88;  
 
SISSETON N/A 72 66 81 E13 29.89S  
ABERDEEN FAIR 87 71 58 SE8 29.82S HX 93  
6HR MIN TEMP: 79; 6HR MAX TEMP: 88;  
 
MITCHELL FAIR 87 69 54 S12 29.82F HX 91  
PIERRE FAIR 93 60 33 S17G30 29.73S HX 93  
6HR MIN TEMP: 87; 6HR MAX TEMP: 96;  
 
MOBRIDGE FAIR 89 70 53 SE18G30 29.74F HX 94  
RAPID CITY FAIR 89 48 24 NE12 29.75S  
6HR MIN TEMP: 89; 6HR MAX TEMP: 101;  
 

 
 
***** SOME WEATHER IN NEARBY STATES *****  
 
CITY SKY/WX TMP DP RH WIND PRES REMARKS
 
GLASGOW MT FAIR 92 39 15 NW15G25 29.67R  
6HR MIN TEMP: 85; 6HR MAX TEMP: 98;  
 
GREAT FALLS MT FAIR 74 30 19 NW18G28 29.86R  
6HR MIN TEMP: 74; 6HR MAX TEMP: 84;  
 
CHEYENNE WY FAIR 82 30 15 S5 30.08S  
6HR MIN TEMP: 78; 6HR MAX TEMP: 88; 6HR PCP: TRACE;  
 
SCOTTSBLUFF NE FAIR 90 45 21 SE12 29.91R  
6HR MIN TEMP: 90; 6HR MAX TEMP: 98;  
 
OMAHA NE PTSUNNY 83 72 69 S10 29.95F  
6HR MIN TEMP: 82; 6HR MAX TEMP: 87;  
 
DES MOINES IA CLOUDY 84 71 65 SE7 29.95F  
6HR MIN TEMP: 84; 6HR MAX TEMP: 88;  
 
DAVENPORT IA FAIR 79 62 56 E9 30.05S  
6HR MIN TEMP: 79; 6HR MAX TEMP: 84;  
 
CHICAGO IL FAIR 82 61 48 E9 30.06S  
6HR MIN TEMP: 82; 6HR MAX TEMP: 86;  
 
EAU CLAIRE WI CLOUDY 71 64 78 N12 30.06R  
6HR MIN TEMP: 71; 6HR MAX TEMP: 78; 6HR PCP: 0.03;  
 
LA CROSSE WI FAIR 83 58 42 SE14G26 30.00F  
6HR MIN TEMP: 80; 6HR MAX TEMP: 86;  
 

 
 
***** SOME NATIONAL WEATHER *****  
 
CITY SKY/WX TMP DP RH WIND PRES REMARKS
 
LA GUARDIA NY MOCLDY 85 71 63 SW3 30.01R HX 90  
6HR MIN TEMP: 77; 6HR MAX TEMP: 92; 6HR PCP: 1.49;  
 
RALEIGH NC MOCLDY 84 73 69 SE6 29.99R HX 90  
6HR MIN TEMP: 84; 6HR MAX TEMP: 91;  
 
ATLANTA GA CLOUDY 76 71 85 SW5 30.01R  
6HR MIN TEMP: 74; 6HR MAX TEMP: 94; 6HR PCP: 0.09;  
 
NEW ORLEANS LA MOCLDY 81 74 79 W5 29.98S  
6HR MIN TEMP: 79; 6HR MAX TEMP: 93; 6HR PCP: TRACE;  
 
OKLAHOMA CITY FAIR 91 71 51 SE15 29.86F HX 97  
6HR MIN TEMP: 82; 6HR MAX TEMP: 92;  
 
ALBUQUERQUE NM LGT RAIN 87 44 22 W21G35 30.11R  
6HR MIN TEMP: 89; 6HR MAX TEMP: 97;  
 
SALT LAKE CITY FAIR 92 37 14 N6 29.97F  
6HR MIN TEMP: 88; 6HR MAX TEMP: 93;  
 
LOS ANGELES CA MOSUNNY  
 
CLICK HERE TO GO TO PREVIOUS BULLETINS.

The Nexlab ND Page
The Nexlab MN Page Main Text Page